Weather in Birikchul

Russia / Republic of Khakassia     53°19′37″N   89°53′06″E
temp.,
°C
wind,
m/s
gust,
m/s
humid.,
%
clouds,
%
prec.,
mm/h
press.,
hPa
HPBL,
m
1 march, mon
mon101:00−16ne1196100 0.1 103020
04:00−16sse0196100 0.1 102721
07:00−17s0196100 0.3 102421
10:00−13sse1294100 0.6 1020152
13:00−10s2293100 1.8 1015208
16:00−5sw3994100 1.5 1012664
19:00−4sw31295100 2.8 1011974
22:00−4wsw41489100 0.6 1010950
2 march, tue
tue201:00−4sw31295100 0.9 1010910
04:00−6wsw3109266 0.3 1009362
07:00−5wsw3149263 0.5 1009703
10:00−4wsw71485100 0.6 10101212
13:00−2w8147888 0.8 10121336
16:00−3w6127932 0.1 10121365
19:00−7w3118550 0.1 1013359
22:00−8sw2592100 0.0 1013103
3 march, wed
wed301:00−10wsw129499 0.0 101321
04:00−12wnw129299 0.0 101321
07:00−12nw229299 0.0 101421
10:00−7w128997 0.0 1015162
13:00−4w597597 0.1 10161317
16:00−4wnw497564 0.0 10161126
19:00−9wsw228781 0.0 101921
22:00−11wsw258988 0.0 1023128
4 march, thu
thu401:00−14w228987 0.0 102527
04:00−17w228989 0.0 102723
07:00−18wsw229186 0.0 103020
10:00−12sw128467 0.0 1028157
13:00−7ssw267833 0.0 1026677
16:00−4sw4777100 0.0 10241069
19:00−8s1291100 0.1 102521
22:00−9w1190100 0.0 102521
5 march, fri
fri501:00−10w0187100 0.0 102421
04:00−12wsw1188100 0.0 102321
07:00−13wsw119187 0.0 102221
10:00−7ssw118466 0.0 101984
13:00−5ese117368 0.0 1013233
16:00−4s2282100 0.1 1014260
19:00−4w51584100 0.6 10191198
22:00−5w6167967 0.0 1023974